Gem, West Virginia
Current Conditions -  °F | °C
As of 4:35 PM on Saturday 20 Dec 2014 (Local Time) from KW22 Reporting Station
Scattered Clouds Scattered Clouds  
Wind Chill: 30°   Ceiling: Unl
Heat Index: 30°   Visibility: 10mi
Dew Point: 23°   Wind: 0mph
Humidity: 75%   Direction: NA
Pressure: 30.2"   Gusts: NA
Location:  38.8444°N, 80.6476°W
Report Text: KW22 202135Z AUTO 00000KT 10SM FEW037 SCT049 M01/M05 A3020 RMK AO2
Loading
Personal Weather Stations






























Interactive Weather Map New forecast layout! Learn more

10-Day Weather Forecast

Advertisements
Track Severe Weather on mobile